Home > Weather > Strasbourg > Past weeks

Flag for France Past Weather in Strasbourg, Alsace, France — Yesterday and Last 2 Weeks

Now
64 °F

Sunny.


Feels Like: 64 °F
Forecast: 51 / 76 °F
Wind: 8 mph from Northeast

Location: Strasbourg Airport

Current Time: May 25, 2016 at 9:01:17 PM

Latest Report: May 25, 2016 at 8:30 PM


Visibility: 10 mi

Pressure: 29.95 "Hg

Humidity: 64%

Dew Point: 52 °F

Location of StrasbourgLocation

Past Weather in Strasbourg — Graph

°F

Strasbourg Temperature Yesterday

Maximum temperature yesterday: 57 °F (at 1:30 PM)
Minimum temperature yesterday: 52 °F (at 2:30 AM)
Average temperature yesterday: 54 °F

High & Low Weather Summary for the Past Weeks

 TemperatureHumidityPressure
High81 °F (May 22, 1:30 PM)100% (May 13, 12:00 AM)30.18 "Hg (May 13, 12:00 AM)
Low41 °F (May 17, 5:30 AM)30% (May 22, 3:30 PM)29.47 "Hg (May 12, 4:00 AM)
Average57 °F75%29.90 "Hg
* Reported May 10 8:00 PM — May 25 8:00 PM, Strasbourg, Weather by CustomWeather, © 2016

Note: Actual official high and low records may vary slightly from our data, if they occured in-between our weather recording intervals... More about our weather records

Advertising

Strasbourg Weather History for the Previous 24 Hours

Scroll right to see more
 ConditionsComfort  
Time TempWeatherWind HumidityBarometerVisibility
8:00 PM
Wed, May 25
66 °FPartly sunny.9 mph60%29.95 "HgN/A
7:30 PM68 °FPartly sunny.5 mph56%29.95 "HgN/A
7:00 PM68 °FSunny.6 mph56%29.92 "Hg10 mi
6:30 PM68 °FBroken clouds.8 mph56%29.92 "HgN/A
6:00 PM70 °FScattered clouds.6 mph50%29.92 "HgN/A
5:30 PM70 °FBroken clouds.3 mph53%29.92 "HgN/A
5:00 PM70 °FSunny.3 mph46%29.92 "Hg10 mi
4:30 PM68 °FSunny.2 mph49%29.92 "Hg10 mi
4:00 PM70 °FPassing clouds.3 mph53%29.92 "HgN/A
3:30 PM68 °FScattered clouds.3 mph53%29.92 "HgN/A
3:00 PM68 °FPassing clouds.3 mph53%29.95 "HgN/A
2:30 PM68 °FPassing clouds.2 mph56%29.95 "HgN/A
2:00 PM66 °FPartly sunny.3 mph60%29.95 "HgN/A
1:30 PM66 °FScattered clouds.3 mph56%29.95 "HgN/A
1:00 PM64 °FScattered clouds.3 mph64%29.95 "HgN/A
12:30 PM64 °FScattered clouds.3 mph64%29.95 "HgN/A
12:00 PM61 °FPartly sunny.2 mph63%29.95 "HgN/A
11:30 AM61 °FPartly sunny.2 mph63%29.98 "HgN/A
11:00 AM61 °FPartly sunny.3 mph68%29.98 "HgN/A
10:30 AM59 °FPartly sunny.3 mph72%29.98 "HgN/A
10:00 AM59 °FPartly sunny.2 mph68%29.98 "HgN/A
9:30 AM57 °FScattered clouds.1 mph72%29.95 "HgN/A
9:00 AM59 °FPassing clouds.2 mph72%29.98 "HgN/A
8:30 AM55 °FPassing clouds.3 mph82%29.98 "HgN/A
8:00 AM54 °FPartly sunny.6 mph82%29.98 "HgN/A
7:30 AM52 °FPartly sunny.5 mph88%29.98 "Hg6 mi
7:00 AM52 °FPartly sunny.5 mph88%29.95 "Hg6 mi
6:30 AM52 °FOvercast.3 mph88%29.95 "HgN/A
6:00 AM52 °FOvercast.3 mph88%29.95 "HgN/A
5:30 AM52 °FOvercast.3 mph94%29.95 "Hg6 mi
5:00 AM52 °FOvercast.2 mph94%29.95 "HgN/A
4:30 AM52 °FOvercast.2 mph88%29.95 "HgN/A
4:00 AM52 °FOvercast.5 mph88%29.95 "Hg6 mi
3:30 AM52 °FOvercast.3 mph88%29.95 "HgN/A
3:00 AM50 °FOvercast.3 mph94%29.98 "HgN/A
2:30 AM50 °FOvercast.5 mph94%29.98 "HgN/A
2:00 AM50 °FPassing clouds.3 mph94%29.98 "Hg6 mi
1:30 AM52 °FPassing clouds.3 mph88%29.98 "HgN/A
1:00 AM52 °FPassing clouds.2 mph88%29.98 "HgN/A
12:30 AM54 °FOvercast.5 mph82%29.98 "HgN/A
12:00 AM54 °FOvercast.5 mph82%29.98 "HgN/A
11:30 PM
Tue, May 24
54 °FOvercast.7 mph82%29.98 "HgN/A
11:00 PM54 °FMostly cloudy.6 mph82%29.98 "HgN/A
10:30 PM54 °FMostly cloudy.3 mph82%29.98 "HgN/A
10:00 PM55 °FMore clouds than sun.3 mph77%29.98 "HgN/A
9:30 PM55 °FMostly cloudy.3 mph77%29.98 "HgN/A
9:00 PM55 °FOvercast.3 mph77%29.98 "HgN/A
Weather by CustomWeather, © 2016

See weather overviewHow to use our weather pages